Regional Weather Roundup
Issued by NWS

Home | Current Version | Previous Version | Text Only | Print | Product List | Glossary Off
Versions: 1 2 3 4 5 6 7 8 9 10 11 12 13 14 15 16 17 18 19 20 21 22 23 24 25 26 27 28 29 30 31 32 33 34 35 36 37 38 39 40 41 42 43 44 45 46 47 48 49 50

000
ASUS43 KMKX 300300
RWRWI

WISCONSIN REGIONAL WEATHER ROUNDUP
NATIONAL WEATHER SERVICE MILWAUKEE/SULLIVAN WI
1000 PM CDT SUN MAY 29 2016

NOTE: "FAIR" INDICATES FEW OR NO CLOUDS BELOW 12,000 FEET WITH NO
SIGNIFICANT WEATHER AND/OR OBSTRUCTIONS TO VISIBILITY.

WIZ001-002-006>008-014>016-023>028-300400-
NORTHWEST WISCONSIN

CITY           SKY/WX    TMP DP  RH WIND       PRES   REMARKS
SUPERIOR ARPT  CLEAR     55  52  88 SW3       29.91R
ASHLAND        CLEAR     55  52  89 CALM      29.92R
HAYWARD        CLEAR     57  54  89 CALM      29.95R
SIREN          PTCLDY    61  55  81 CALM      29.95R
CUMBERLAND     PTCLDY    61  55  82 CALM      29.95R
RICE LAKE      PTCLDY    65  57  74 CALM      29.96R
CHETEK         PTCLDY    61  61 100 CALM      29.95R
LADYSMITH      CLEAR     64  58  80 CALM      29.96R
EAU CLAIRE     NOT AVBL
MENOMONIE      CLOUDY    67  56  66 SW5       29.95R
NEW RICHMOND   CLEAR     62  55  77 SW3       29.96R
OSCEOLA        CLEAR     66  54  64 W5        29.97R
$$

WIZ003>005-009-010-017-018-300400-
NORTH CENTRAL WISCONSIN

CITY           SKY/WX    TMP DP  RH WIND       PRES   REMARKS
MANITOWISH WTR NOT AVBL
ARBOR VITAE    CLEAR     59  57  92 CALM      29.94  FOG
WOODRUFF       CLEAR     59  57  92 CALM      29.94  FOG
RHINELANDER    CLEAR     55  53  93 W3        29.95R
EAGLE RIVER      N/A     57  56  97 CALM      29.93S
LAND O LAKES   CLEAR     58  56  96 CALM      29.94R
PHILLIPS       PTCLDY    58  56  96 CALM      29.94R
TOMAHAWK       PTCLDY    57  55  92 CALM      29.94S
MEDFORD        CLEAR     63  57  80 CALM      29.95R
MERRILL        PTCLDY    60  56  87 CALM      29.95R
$$

WIZ029-030-035-036-043>047-300400-
CENTRAL WISCONSIN

CITY           SKY/WX    TMP DP  RH WIND       PRES   REMARKS
WAUSAU         CLEAR     65  55  70 CALM      29.93R
MOSINEE        CLEAR     63  55  77 W6        29.96R
MARSHFIELD     CLEAR     61  56  83 W6        29.95R
STEVENS POINT  CLEAR     58  56  91 CALM      29.96R
WAUPACA        CLEAR     65  58  78 CALM      29.95R
WAUTOMA        NOT AVBL
WISC RAPIDS    CLEAR     61  55  81 CALM      29.97R
CAMP DOUGLAS   NOT AVBL
$$

WIZ011>013-019>022-031-037>040-048>050-300400-
NORTHEAST WISCONSIN

CITY           SKY/WX    TMP DP  RH WIND       PRES   REMARKS
ANTIGO         PTCLDY    59  55  86 CALM      29.95R
SHAWANO        CLEAR     67  58  73 CALM      29.93R
OCONTO         PTCLDY    66  61  84 CALM      29.91R
STURGEON BAY   NOT AVBL
GREEN BAY      CLEAR     68  58  70 W6        29.93R
MANITOWOC      NOT AVBL
APPLETON       PTCLDY    64  54  68 W6        29.94R
CLINTONVILLE   CLEAR     64  54  68 W6        29.93R
OSHKOSH        CLEAR     67  56  67 CALM      29.95R
$$

WIZ032>034-041-042-053>061-300400-
SOUTHWEST WISCONSIN

CITY           SKY/WX    TMP DP  RH WIND       PRES   REMARKS
LA CROSSE      CLEAR     66  58  75 CALM      29.96R
SPARTA         CLEAR     62  57  83 CALM      29.97R
VIROQUA        CLEAR     64  60  88 SW5       29.99R
BOSCOBEL       CLEAR     66  61  84 CALM      29.99R
PRAIRIE DU CHI CLEAR     66  59  79 CALM      29.98R
PLATTEVILLE    CLEAR     68  59  73 S6        30.00R
$$

WIZ056-057-062-063-064-067-068-300400-
SOUTH CENTRAL WISCONSIN

CITY           SKY/WX    TMP DP  RH WIND       PRES   REMARKS
REEDSBURG      CLOUDY    65  63  91 CALM      29.96R
BARABOO/DELLS  CLOUDY    66  59  77 SW3       29.97R
LONE ROCK      NOT AVBL
MINERAL POINT  CLEAR     68  59  73 SW5       30.00R
MADISON        TSTM      65  59  81 VRB7      29.98R
MIDDLETON      CLOUDY    68  59  72 NE8       30.00R
WATERTOWN      PTCLDY    66  59  77 SW3       29.97R
MONROE         CLEAR     68  57  68 SW8       29.99R
JANESVILLE     NOT AVBL
$$

WIZ051-052-058>065-066-070>072-300400-
SOUTHEAST WISCONSIN

CITY           SKY/WX    TMP DP  RH WIND       PRES   REMARKS
MILWAUKEE      PTCLDY    71  57  61 W6        29.97R
WAUKESHA       CLEAR     66  55  68 SW6       29.98R
MILWAUKEE/TIMM CLEAR     68  54  60 W3        29.97R
RACINE         CLEAR     70  56  61 W5        29.99R
BURLINGTON     MOCLDY    68  57  68 W3        29.98R
KENOSHA        MOCLDY    67  58  72 W5        29.98R
FOND DU LAC    PTCLDY    68  58  70 SW5       29.95R
SHEBOYGAN      PTCLDY    64  57  78 W6        29.94R
WEST BEND      CLEAR     68  55  64 W6        29.96R
JUNEAU         PTCLDY    67  58  72 SW8       29.98R
$$

LSZ147-162-300400-
LAKE SUPERIOR

STATION/POSITION TIME  TEMP    WIND        PRES    WAVE
                       AIR SEA DIR/SP/G            HT/PER
                 (UTC) (F)     (DEG/KT/KT) (MB)    (FT/S)
W MID LAKE BUOY  0150   44 38  240/ 10/ 12 1011.2R   2/ 4
DEVILS ISLAND    0200   51     230/ 10/ 12 1012.3R
PORT WING        0100   60     270/  8/ 10 1012.5
SAXON HARBOR     0240   59     200/  4/ 25 1012.5R
$$

LMZ867-665-643>646-300400-
LAKE MICHIGAN

STATION/POSITION TIME  TEMP    WIND        PRES    WAVE
                       AIR SEA DIR/SP/G            HT/PER
                 (UTC) (F)     (DEG/KT/KT) (MB)    (FT/S)
CHAMBERS ISLAND  0200   63      CALM  /  3 1012.2R
N MID LAKE BUOY  0150   51 48  210/  8/ 10 1011.3R   3/ 5
NORTHPORT PIER   0200   63     270/  5/  8 1011.5F
KEWAUNEE LAKESHO 0200   71                   N/A
SHEBOYGAN LAKESH 0200   73     230/  4/  5 1013.3R
PORT WASHINGTON  0240   72     250/  5/  7 1014.6R
S MID LAKE BUOY  0150   57 51  220/  8/ 10 1014.0R   1
KENOSHA   LAKESH 0200   76     250/  6/  9 1014.2S
$$

TC  - TEMPERATURE IN CELSIUS
VSB - VISIBILITY IN STATUTE MILES
WCI - WIND CHILL INDEX
HX  - HEAT INDEX





USA.gov is the U.S. government's official web portal to all federal, state and local government web resources and services.